Weather in Rabocheostrovsk

Russia / Republic of Karelia     64°59′05″N   34°45′08″E
temp.,
°C
wind,
m/s
gust,
m/s
humid.,
%
clouds,
%
prec.,
mm/h
press.,
hPa
HPBL,
m
28 july, wed
wed2800:00+12ssw3370100 0.0 101727
03:00+12sw337393 0.0 101530
06:00+13wsw467916 0.0 101378
09:00+18w246267 0.0 1011242
12:00+20nw365176 0.0 1009643
15:00+15ne79755 0.0 1009173
18:00+13ene510865 0.0 1009183
21:00+12e36921 0.0 1008106
29 july, thu
thu2900:00+11e579449 0.0 100885
03:00+11ese589339 0.1 1007171
06:00+11ese698615 0.1 1006225
09:00+11ese5982100 0.1 1005319
12:00+12e5779100 0.2 1004345
15:00+12e688087 0.2 1002308
18:00+10ene101481100 0.1 1001292
21:00+10e81391100 0.1 1001340
30 july, fri
fri3000:00+10ene71093100 0.0 1000331
03:00+10e6993100 0.0 999239
06:00+11e5891100 0.0 999251
09:00+11e5789100 0.0 998233
12:00+11e4690100 0.3 998207
15:00+11e689497 2.9 997179
18:00+12e6994100 0.8 995176
21:00+12ene459799 3.4 99481
31 july, sat
sat3100:00+11ssw1198100 0.9 99320
03:00+12wsw3493100 1.3 99350
06:00+12e1196100 0.2 99313
09:00+12ese1197100 1.3 99365
12:00+14ese1192100 1.8 994142
15:00+14e2292100 3.9 99581
18:00+13ne3497100 1.7 99699
21:00+12ne349827 2.3 99680
1 august, sun
sun100:00+11ne349832 0.0 99756
03:00+11e339711 0.0 99833
06:00+11e239542 0.0 99854
09:00+12e339249 0.0 999178
12:00+12ene338980 0.0 999218
15:00+12ene4488100 0.0 999232
18:00+12ne4591100 0.0 999155
21:00+11ne579855 0.0 999131